Flag for Austria Weather past 2 weeks in Horn, Lower Austria, Austria

Now
58 °F

Cool.


Feels Like: 57 °F
Forecast: 51 / 74 °F
Wind: 7 mph from Northwest

Location: Retz

Current Time: Jul 30, 2015 at 4:16:48 AM

Latest Report: Jul 30, 2015 at 3:00 AM


Visibility: N/A

Pressure: 29.91 "Hg

Humidity: 76%

Dew point: 50 °F

Location of HornLocation

Historic Weather in Horn — Graph

°F

Horn temperature yesterday

Maximum temperature yesterday: 72 °F (at 4:00 PM)
Minimum temperature yesterday: 56 °F (at 6:00 AM)
Average temperature yesterday: 64 °F

Past Weeks' High & Low Weather Summary

 TemperatureHumidityPressure
High96 °F (Jul 17, 3:00 PM)92% (Jul 29, 7:00 AM)30.11 "Hg (Jul 29, 7:00 AM)
Low56 °F (Jul 26, 6:00 AM)21% (Jul 17, 3:00 PM)29.64 "Hg (Jul 27, 4:00 PM)
Average75 °F56%29.88 "Hg
* Reported Jul 15 3:00 AM — Jul 30 3:00 AM, Horn, Weather by CustomWeather, © 2015

Note: Actual official high and low records may vary slightly from our data, if they occured in-between our weather recording intervals... More about our weather records

Advertising

Horn weather history for previous 24 hours

 ConditionsComfort  
Time TempWeatherWind HumidityBarometerVisibility
3:00 AM
Thu, Jul 30
58 °FCool.7 mph76%29.91 "HgN/A
2:00 AM60 °FCool.8 mph72%29.89 "HgN/A
1:00 AM62 °FCool.8 mph70%29.87 "HgN/A
12:00 AM63 °FMild.5 mph75%29.85 "HgN/A
11:00 PM
Wed, Jul 29
64 °FMild.3 mph79%29.83 "HgN/A
10:00 PM65 °FMild.3 mph78%29.80 "HgN/A
9:00 PM65 °FMild.2 mph78%29.78 "HgN/A
8:00 PM67 °FOvercast.3 mph73%29.77 "Hg22 mi
7:00 PM67 °FMild.2 mph70%29.77 "HgN/A
6:00 PM68 °FFog.5 mph67%29.77 "HgN/A
5:00 PM71 °FMild.7 mph58%29.76 "HgN/A
4:00 PM72 °FMild.3 mph54%29.76 "HgN/A
3:00 PM70 °FMild.5 mph58%29.78 "HgN/A
2:00 PM68 °FPartly sunny.5 mph65%29.80 "Hg25 mi
1:00 PM65 °FMild.5 mph69%29.82 "HgN/A
12:00 PM65 °FMild.3 mph70%29.83 "HgN/A
11:00 AM64 °FMild.3 mph69%29.86 "HgN/A
10:00 AM62 °FCool.5 mph79%29.87 "HgN/A
9:00 AM58 °FCool.3 mph90%29.89 "HgN/A
8:00 AM57 °FOvercast.2 mph92%29.89 "Hg14 mi
7:00 AM56 °FOvercast.3 mph92%29.88 "Hg12 mi
6:00 AM56 °FFog.3 mph91%29.88 "HgN/A
4:00 AM58 °FFog.7 mph84%29.85 "HgN/A
Weather by CustomWeather, © 2015

See weather overviewHow to use our weather pages